Location: Isle of Man Observatory
(54.1776°N, 4.6264°W)
Time: 05:37:21
(UTC+02:00)

ACS3 Solar Sail - Pass Details

Date: 30 May 2026
Orbit: 873 x 957 km, 97.2° (Epoch: 10 June)

Event Time Altitude Azimuth Distance (km) Brightness Sun altitude
Rises 01:48:30 0° 19° (NNE) 3,479 5.9 -13.8°
Reaches altitude 10° 01:51:21 10° 33° (NNE) 2,537 4.8 -13.9°
Maximum altitude 01:55:57 25° 88° (E) 1,699 3.1 -14.0°
Enters shadow 01:59:58 12° 138° (SE) 2,374 3.4 -14.0°
